Location: Lugrin
(46.4033°N, 6.6674°E)
Time: 08:53:57
(UTC+00:00)

N. Korean satellite - Pass Details

Date: 25 November 2020
Orbit: 453 x 502 km, 97.2° (Epoch: 16 January)

Event Time Altitude Azimuth Distance (km) Brightness Sun altitude
Rises 05:13:38 0° 11° (N) 2,537 10.2 -16.1°
Reaches altitude 10° 05:15:41 10° 10° (N) 1,662 9.2 -15.7°
Maximum altitude 05:19:16 80° 284° (WNW) 499 6.4 -15.1°
Drops below altitude 10° 05:22:52 10° 197° (SSW) 1,675 9.3 -14.5°
Sets 05:24:56 0° 197° (SSW) 2,559 10.2 -14.2°
